Location: Bussy-Saint-Georges
(48.8410°N, 2.7017°E)
Time: 22:47:01
(UTC+00:00)

H-2A R/B - Pass Details

Date: 18 October 2021
Orbit: 528 x 650 km, 98.3° (Epoch: 07 December)

Event Time Altitude Azimuth Distance (km) Brightness Sun altitude
Rises 17:32:48 0° 139° (SE) 2,919 5.7 -7.2°
Reaches altitude 10° 17:35:10 10° 130° (SE) 2,000 4.8 -7.6°
Maximum altitude 17:39:03 33° 67° (ENE) 1,038 3.2 -8.2°
Drops below altitude 10° 17:42:52 10° 3° (N) 1,950 5.0 -8.8°
Sets 17:45:09 0° 354° (N) 2,835 6.0 -9.2°
